This is the latest recevied weather packets stored in our database for station/object DW9280. If no packets are shown the sender has not sent any weather packets the latest 1 day(s).
| Time | Temp. | Humidity | Pressure | Rain* | Wind** | Luminosity | Snow |
|---|---|---|---|---|---|---|---|
| 1778029088 | 10.56° C | 80% | 1009.4 hPa | 0 mm | 2.68 m/s, 35° | 0 W/m² | - |
| 1778028788 | 10.56° C | 80% | 1009.5 hPa | 0 mm | 2.68 m/s, 342° | 0 W/m² | - |
| 1778028612 | 10.56° C | 80% | 1009.4 hPa | 0 mm | 2.68 m/s, 22° | 0 W/m² | - |
| 1778028188 | 10.56° C | 80% | 1009.5 hPa | 0 mm | 2.24 m/s, 44° | 0 W/m² | - |
| 1778027888 | 10.56° C | 81% | 1009.6 hPa | 0 mm | 1.79 m/s, 44° | 0 W/m² | - |
| 1778027587 | 10.56° C | 81% | 1009.6 hPa | 0 mm | 1.79 m/s, 54° | 0 W/m² | - |
| 1778027287 | 10.56° C | 81% | 1009.7 hPa | 0 mm | 1.34 m/s, 355° | 0 W/m² | - |
| 1778026987 | 10.56° C | 81% | 1009.7 hPa | 0 mm | 2.24 m/s, 13° | 0 W/m² | - |
| 1778026686 | 10.56° C | 81% | 1009.6 hPa | 0 mm | 2.24 m/s, 51° | 0 W/m² | - |
| 1778026386 | 10.56° C | 82% | 1009.7 hPa | 0 mm | 1.34 m/s, 11° | 0 W/m² | - |
| 1778026088 | 10.56° C | 82% | 1009.7 hPa | 0 mm | 1.34 m/s, 38° | 0 W/m² | - |
| 1778025788 | 10.56° C | 82% | 1009.7 hPa | 0 mm | 1.34 m/s, 11° | 0 W/m² | - |
| 1778025613 | 10.56° C | 82% | 1009.7 hPa | 0 mm | 1.79 m/s, 32° | 0 W/m² | - |
| 1778025187 | 10.56° C | 82% | 1009.8 hPa | 0 mm | 1.79 m/s, 19° | 0 W/m² | - |
| 1778024889 | 10.56° C | 81% | 1009.8 hPa | 0 mm | 1.79 m/s, 16° | 0 W/m² | - |
| 1778024587 | 10.56° C | 81% | 1009.9 hPa | 0 mm | 1.79 m/s, 30° | 0 W/m² | - |
| 1778024287 | 10.56° C | 82% | 1010 hPa | 0 mm | 1.79 m/s, 22° | 0 W/m² | - |
| 1778023988 | 10.56° C | 82% | 1010.1 hPa | 0 mm | 1.34 m/s, 0° | 0 W/m² | - |
| 1778023688 | 10.56° C | 82% | 1010.1 hPa | 0 mm | 1.79 m/s, 56° | 0 W/m² | - |
| 1778023388 | 10.56° C | 82% | 1010.1 hPa | 0 mm | 1.79 m/s, 9° | 0 W/m² | - |
| 1778023087 | 10.56° C | 82% | 1010.1 hPa | 0 mm | 1.79 m/s, 17° | 0 W/m² | - |
| 1778022787 | 10.56° C | 82% | 1010.2 hPa | 0 mm | 1.79 m/s, 28° | 0 W/m² | - |
| 1778022487 | 10.56° C | 83% | 1010.2 hPa | 0 mm | 1.79 m/s, 19° | 0 W/m² | - |
| 1778022188 | 10° C | 83% | 1010.2 hPa | 0 mm | 1.79 m/s, 28° | 0 W/m² | - |
| 1778021887 | 10° C | 83% | 1010.2 hPa | 0 mm | 1.79 m/s, 42° | 0 W/m² | - |
* Rain latest hour (hover to see other rain measurements)
** Current wind speed in m/s (hover to see current wind gust speed)